When you browse on this site, cookies collect data to enhance your experience and personalize the content and advertising you see.
Visit our Privacy Policy to learn more. By continuing to use the site, you agree to this use of cookies and data.
  • In Austria
  • List of Countries
  • For 7 days
  • Water Temperature
  • Satellite Maps
  • Weather Map
  • News
  • Weather Widgets
  • user-avatar
    Login

    Hourly Weather Sidi Bu-l-Abbas

    Today, 10 December, Monday

    Time Temperature Precipitation Wind Pressure Humidity
    00:00 +12°C° 0 mm 0 mps 728 mmHg 49%
    01:00 +12°C° 0 mm 0 mps 727 mmHg 49%
    02:00 +12°C° 0 mm 0 mps 727 mmHg 49%
    03:00 +11°C° 0 mm 0 mps 727 mmHg 48%
    04:00 +11°C° 0 mm 0 mps 727 mmHg 49%
    05:00 +12°C° 0 mm 1 mps 727 mmHg 49%
    06:00 +11°C° 0 mm 0 mps 727 mmHg 49%
    07:00 +14°C° 0 mm 1 mps 727 mmHg 45%
    08:00 +16°C° 0 mm 1 mps 728 mmHg 41%
    09:00 +19°C° 0 mm 1 mps 728 mmHg 37%
    10:00 +20°C° 0 mm 1 mps 728 mmHg 35%
    11:00 +21°C° 0 mm 1 mps 728 mmHg 32%
    12:00 +22°C° 0 mm 1 mps 728 mmHg 30%
    13:00 +21°C° 0 mm 2 mps 728 mmHg 30%
    14:00 +21°C° 0 mm 2 mps 727 mmHg 31%
    15:00 +21°C° 0 mm 3 mps 727 mmHg 31%
    16:00 +20°C° 0 mm 2 mps 726 mmHg 37%
    17:00 +18°C° 0 mm 2 mps 726 mmHg 42%
    18:00 +16°C° 0 mm 2 mps 726 mmHg 48%
    19:00 +16°C° 0 mm 2 mps 726 mmHg 49%
    20:00 +15°C° 0 mm 1 mps 726 mmHg 51%
    21:00 +14°C° 0 mm 1 mps 726 mmHg 52%
    22:00 +14°C° 0 mm 1 mps 726 mmHg 52%
    23:00 +14°C° 0 mm 1 mps 726 mmHg 52%

    Tomorrow, 11 December, Tuesday

    Time Temperature Precipitation Wind Pressure Humidity
    00:00 +14°C° 0 mm 1 mps 725 mmHg 53%
    01:00 +13°C° 0 mm 1 mps 725 mmHg 53%
    02:00 +13°C° 0 mm 1 mps 725 mmHg 53%
    03:00 +13°C° 0 mm 1 mps 724 mmHg 54%
    04:00 +12°C° 0 mm 1 mps 724 mmHg 55%
    05:00 +12°C° 0 mm 1 mps 724 mmHg 56%
    06:00 +12°C° 0 mm 1 mps 724 mmHg 57%
    07:00 +14°C° 0 mm 1 mps 724 mmHg 52%
    08:00 +15°C° 0 mm 1 mps 725 mmHg 47%
    09:00 +18°C° 0 mm 1 mps 725 mmHg 41%
    10:00 +19°C° 0 mm 1 mps 725 mmHg 39%
    11:00 +20°C° 0 mm 1 mps 725 mmHg 36%
    12:00 +20°C° 0 mm 2 mps 725 mmHg 34%
    13:00 +20°C° 0 mm 2 mps 724 mmHg 36%
    14:00 +20°C° 0 mm 2 mps 724 mmHg 37%
    15:00 +20°C° 0 mm 3 mps 724 mmHg 39%
    16:00 +18°C° 0 mm 2 mps 724 mmHg 47%
    17:00 +17°C° 0 mm 2 mps 724 mmHg 55%
    18:00 +15°C° 0 mm 1 mps 724 mmHg 63%
    19:00 +14°C° 0 mm 1 mps 724 mmHg 66%
    20:00 +14°C° 0 mm 1 mps 724 mmHg 69%
    21:00 +13°C° 0 mm 1 mps 724 mmHg 71%
    22:00 +13°C° 0 mm 1 mps 724 mmHg 72%
    23:00 +13°C° 0 mm 1 mps 724 mmHg 73%

    Day after tomorrow, 12 December, Wednesday

    Time Temperature Precipitation Wind Pressure Humidity
    00:00 +12°C° 0 mm 1 mps 724 mmHg 74%
    01:00 +12°C° 0 mm 1 mps 723 mmHg 74%
    02:00 +12°C° 0 mm 1 mps 723 mmHg 73%
    03:00 +12°C° 0 mm 1 mps 723 mmHg 73%
    04:00 +11°C° 0 mm 1 mps 723 mmHg 73%
    05:00 +11°C° 0 mm 1 mps 723 mmHg 73%
    06:00 +11°C° 0 mm 1 mps 723 mmHg 73%
    07:00 +12°C° 0 mm 1 mps 724 mmHg 68%
    08:00 +14°C° 0 mm 1 mps 724 mmHg 62%
    09:00 +15°C° 0 mm 2 mps 725 mmHg 57%
    10:00 +16°C° 0 mm 2 mps 724 mmHg 52%
    11:00 +17°C° 0 mm 2 mps 724 mmHg 47%
    12:00 +19°C° 0 mm 3 mps 724 mmHg 41%
    13:00 +19°C° 0 mm 3 mps 723 mmHg 42%
    14:00 +18°C° 0 mm 3 mps 723 mmHg 43%
    15:00 +18°C° 0 mm 3 mps 722 mmHg 45%
    16:00 +17°C° 0 mm 2 mps 722 mmHg 53%
    17:00 +15°C° 0 mm 2 mps 722 mmHg 61%
    18:00 +14°C° 0 mm 1 mps 722 mmHg 69%
    19:00 +14°C° 0 mm 1 mps 722 mmHg 69%
    20:00 +13°C° 0 mm 1 mps 722 mmHg 69%
    21:00 +13°C° 0 mm 1 mps 722 mmHg 69%
    22:00 +13°C° 0 mm 2 mps 722 mmHg 68%
    23:00 +13°C° 0 mm 2 mps 722 mmHg 67%

    13 December, Thursday

    Time Temperature Precipitation Wind Pressure Humidity
    00:00 +12°C° 0 mm 2 mps 721 mmHg 65%
    01:00 +12°C° 0 mm 2 mps 721 mmHg 64%
    02:00 +12°C° 0 mm 2 mps 720 mmHg 63%
    03:00 +11°C° 0 mm 3 mps 720 mmHg 63%
    04:00 +11°C° 0 mm 3 mps 720 mmHg 63%
    05:00 +11°C° 0 mm 3 mps 720 mmHg 63%
    06:00 +10°C° 0 mm 3 mps 719 mmHg 64%
    07:00 +11°C° 0 mm 4 mps 720 mmHg 62%
    08:00 +12°C° 0 mm 4 mps 720 mmHg 60%
    09:00 +13°C° 0 mm 5 mps 720 mmHg 59%
    10:00 +14°C° 0 mm 5 mps 720 mmHg 54%
    11:00 +15°C° 0 mm 6 mps 719 mmHg 49%
    12:00 +16°C° 0 mm 6 mps 719 mmHg 45%
    13:00 +15°C° 0.7 mm 7 mps 718 mmHg 50%
    14:00 +15°C° 0.7 mm 7 mps 717 mmHg 54%
    15:00 +13°C° 0.7 mm 8 mps 717 mmHg 59%
    16:00 +12°C° 0.8 mm 10 mps 717 mmHg 64%
    17:00 +12°C° 0.8 mm 13 mps 717 mmHg 68%
    18:00 +10°C° 0.8 mm 15 mps 718 mmHg 73%
    19:00 +9°C° 0.5 mm 15 mps 718 mmHg 69%
    20:00 +9°C° 0.5 mm 15 mps 719 mmHg 66%
    21:00 +8°C° 0.5 mm 15 mps 720 mmHg 62%
    22:00 +8°C° 0.8 mm 14 mps 720 mmHg 62%
    23:00 +6°C° 0.8 mm 14 mps 720 mmHg 62%

    14 December, Friday

    Time Temperature Precipitation Wind Pressure Humidity
    00:00 +7°C° 0.8 mm 13 mps 721 mmHg 62%
    01:00 +7°C° 0.4 mm 13 mps 721 mmHg 64%
    02:00 +7°C° 0.4 mm 13 mps 721 mmHg 66%
    03:00 +7°C° 0.4 mm 12 mps 721 mmHg 68%
    04:00 +7°C° 0.2 mm 12 mps 721 mmHg 68%
    05:00 +6°C° 0.2 mm 11 mps 722 mmHg 69%
    06:00 +6°C° 0.2 mm 10 mps 722 mmHg 70%
    07:00 +7°C° 0.1 mm 10 mps 723 mmHg 67%
    08:00 +7°C° 0.1 mm 10 mps 724 mmHg 64%
    09:00 +8°C° 0.1 mm 10 mps 725 mmHg 61%
    10:00 +9°C° 0 mm 10 mps 725 mmHg 59%
    11:00 +9°C° 0 mm 10 mps 725 mmHg 56%
    12:00 +11°C° 0 mm 10 mps 726 mmHg 54%
    13:00 +9°C° 0 mm 10 mps 725 mmHg 55%
    14:00 +10°C° 0 mm 9 mps 725 mmHg 56%
    15:00 +10°C° 0 mm 9 mps 725 mmHg 57%
    16:00 +9°C° 0 mm 7 mps 726 mmHg 62%
    17:00 +9°C° 0 mm 6 mps 726 mmHg 67%
    18:00 +8°C° 0 mm 4 mps 727 mmHg 71%
    19:00 +8°C° 0 mm 4 mps 727 mmHg 74%
    20:00 +8°C° 0 mm 3 mps 728 mmHg 76%
    21:00 +8°C° 0 mm 3 mps 728 mmHg 78%
    22:00 +8°C° 0 mm 3 mps 728 mmHg 78%
    23:00 +8°C° 0 mm 3 mps 728 mmHg 78%

    15 December, Saturday

    Time Temperature Precipitation Wind Pressure Humidity
    00:00 +8°C° 0 mm 3 mps 728 mmHg 78%
    01:00 +8°C° 0 mm 3 mps 728 mmHg 78%
    02:00 +8°C° 0 mm 2 mps 728 mmHg 78%
    03:00 +7°C° 0 mm 2 mps 728 mmHg 78%
    04:00 +7°C° 0 mm 2 mps 728 mmHg 77%
    05:00 +7°C° 0 mm 2 mps 728 mmHg 77%
    06:00 +7°C° 0 mm 2 mps 729 mmHg 76%
    07:00 +8°C° 0 mm 2 mps 729 mmHg 70%
    08:00 +9°C° 0 mm 2 mps 730 mmHg 64%
    09:00 +10°C° 0 mm 2 mps 730 mmHg 59%
    10:00 +12°C° 0 mm 2 mps 730 mmHg 53%
    11:00 +13°C° 0 mm 1 mps 730 mmHg 47%
    12:00 +14°C° 0 mm 1 mps 730 mmHg 41%
    13:00 +15°C° 0 mm 1 mps 730 mmHg 40%
    14:00 +15°C° 0 mm 1 mps 729 mmHg 39%
    15:00 +15°C° 0 mm 1 mps 729 mmHg 37%
    16:00 +14°C° 0 mm 1 mps 729 mmHg 43%
    17:00 +13°C° 0 mm 1 mps 729 mmHg 48%
    18:00 +12°C° 0 mm 1 mps 729 mmHg 54%
    19:00 +11°C° 0 mm 1 mps 729 mmHg 55%
    20:00 +11°C° 0 mm 1 mps 729 mmHg 55%
    21:00 +11°C° 0 mm 1 mps 729 mmHg 56%
    22:00 +11°C° 0 mm 1 mps 729 mmHg 56%
    23:00 +10°C° 0 mm 1 mps 729 mmHg 55%
    Show more